Flag for Chile Weather past 2 weeks in Santiago, Chile

Now
72 °F

Sunny.


Feels Like: 77 °F
Forecast: 50 / 77 °F
Wind: 16 mph from South

Location: Pudahuel

Current Time: Oct 2, 2014 at 3:01:00 PM

Latest Report: Oct 2, 2014 at 2:00 PM


Visibility: 10 mi

Pressure: 29.92 "Hg

Humidity: 44%

Dew point: 48 °F

Location of SantiagoLocation

Historic Weather in Santiago — Graph

°F

Santiago temperature yesterday

Maximum temperature yesterday: 79 °F (at 3:00 PM)
Minimum temperature yesterday: 45 °F (at 8:00 AM)
Average temperature yesterday: 61 °F

Past Weeks' High & Low Weather Summary

 TemperatureHumidityPressure
High79 °F (Oct 1, 3:00 PM)100% (Sep 21, 9:00 AM)30.27 "Hg (Sep 21, 9:00 AM)
Low41 °F (Sep 20, 6:00 AM)26% (Sep 30, 5:00 PM)29.89 "Hg (Oct 1, 4:00 AM)
Average55 °F69%30.07 "Hg
* Reported Sep 17 2:00 PM — Oct 2 2:00 PM, Santiago, Weather by CustomWeather, © 2014

Note: Actual official high and low records may vary slightly from our data, if they occured in-between our weather recording intervals... More about our weather records

Advertising

Santiago weather history for previous 24 hours

 ConditionsComfort  
Time TempWeatherWind HumidityBarometerVisibility
2:00 PM
Oct 2
72 °FSunny.16 mph44%29.92 "Hg10 mi
1:00 PM70 °FSunny.14 mph50%29.95 "Hg10 mi
12:00 PM64 °FClear.8 mph60%29.95 "Hg4 mi
11:00 AM55 °FHaze.5 mph82%29.98 "Hg3 mi
10:00 AM50 °FCool.1 mph94%29.98 "Hg1 mi
9:00 AM48 °FFog.1 mph100%29.98 "Hg0 mi
8:00 AM48 °FFog.2 mph94%29.98 "Hg0 mi
7:00 AM48 °FFog.3 mph94%29.95 "Hg0 mi
6:00 AM50 °FFog.No wind94%29.95 "Hg0 mi
5:00 AM50 °FFog.2 mph94%29.95 "Hg1 mi
4:00 AM48 °FFog.5 mph100%29.95 "Hg0 mi
3:00 AM50 °FFog.7 mph94%29.98 "Hg1 mi
2:00 AM50 °FFog.7 mph94%29.98 "Hg1 mi
1:00 AM50 °FCool.8 mph94%29.98 "Hg1 mi
12:00 AM54 °FClear.7 mph82%29.98 "Hg10 mi
11:00 PM
Oct 1
55 °FPassing clouds.5 mph82%30.01 "HgN/A
10:00 PM57 °FClear.7 mph77%30.01 "Hg10 mi
9:00 PM61 °FClear.10 mph72%29.98 "Hg10 mi
8:00 PM64 °FClear.12 mph60%29.98 "Hg10 mi
7:00 PM70 °FPassing clouds.10 mph53%29.95 "HgN/A
6:00 PM73 °FSunny.14 mph47%29.95 "Hg10 mi
5:00 PM79 °FPassing clouds.15 mph37%29.92 "HgN/A
4:00 PM79 °FPassing clouds.13 mph32%29.92 "HgN/A
3:00 PM79 °FPassing clouds.9 mph28%29.92 "HgN/A
Weather by CustomWeather, © 2014

See weather overviewHow to use our weather pages